This is the latest recevied weather packets stored in our database for station/object KC1OEK-13. If no packets are shown the sender has not sent any weather packets the latest 10 day(s).
| Time | Temp. | Humidity | Pressure | Rain* | Wind** | Luminosity | Snow |
|---|---|---|---|---|---|---|---|
| 1777821606 | 8.89° C | 55% | 1011.9 hPa | 0 mm | - | 434 W/m² | - |
| 1777821304 | 8.89° C | 55% | 1011.9 hPa | 0 mm | - | 464 W/m² | - |
| 1777821000 | 8.89° C | 55% | 1011.8 hPa | 0 mm | - | 639 W/m² | - |
| 1777820697 | 8.33° C | 56% | 1011.8 hPa | 0 mm | - | 475 W/m² | - |
| 1777820392 | 8.89° C | 56% | 1011.7 hPa | 0 mm | - | 471 W/m² | - |
| 1777820090 | 8.89° C | 57% | 1011.7 hPa | 0 mm | - | 462 W/m² | - |
| 1777819787 | 8.89° C | 58% | 1011.7 hPa | 0 mm | - | 300 W/m² | - |
| 1777819485 | 9.44° C | 58% | 1011.6 hPa | 0 mm | - | 716 W/m² | - |
| 1777819183 | 8.33° C | 58% | 1011.7 hPa | 0 mm | - | 371 W/m² | - |
| 1777818879 | 9.44° C | 57% | 1011.6 hPa | 0 mm | - | 289 W/m² | - |
| 1777818575 | 9.44° C | 55% | 1011.6 hPa | 0 mm | - | 323 W/m² | - |
| 1777818273 | 9.44° C | 56% | 1011.3 hPa | 0 mm | - | 304 W/m² | - |
| 1777817969 | 10° C | 55% | 1011.4 hPa | 0 mm | - | 501 W/m² | - |
| 1777817667 | 10° C | 54% | 1011.5 hPa | 0 mm | - | 641 W/m² | - |
| 1777817364 | 8.89° C | 56% | 1011.2 hPa | 0 mm | - | 649 W/m² | - |
| 1777817061 | 9.44° C | 55% | 1011.4 hPa | 0 mm | - | 599 W/m² | - |
| 1777816756 | 9.44° C | 56% | 1011.4 hPa | 0 mm | - | 583 W/m² | - |
| 1777816455 | 9.44° C | 56% | 1011.4 hPa | 0 mm | - | 288 W/m² | - |
| 1777816152 | 8.89° C | 56% | 1011.2 hPa | 0 mm | - | 583 W/m² | - |
| 1777815850 | 8.89° C | 57% | 1011.3 hPa | 0 mm | - | 153 W/m² | - |
| 1777815546 | 8.33° C | 59% | 1011.2 hPa | 0 mm | - | 571 W/m² | - |
| 1777815244 | 8.33° C | 60% | 1011.5 hPa | 0 mm | - | 493 W/m² | - |
| 1777814939 | 7.78° C | 59% | 1011.4 hPa | 0 mm | - | 231 W/m² | - |
| 1777814636 | 8.33° C | 58% | 1011.5 hPa | 0 mm | - | 364 W/m² | - |
| 1777814333 | 8.33° C | 59% | 1011.5 hPa | 0 mm | - | 164 W/m² | - |
* Rain latest hour (hover to see other rain measurements)
** Current wind speed in m/s (hover to see current wind gust speed)